STARLINK-31183, 58747

Orbit data source: Space-Track

STARLINK-31183, 58747 is a payload satellite owned by SpaceX/Seattle (US) in LEO that was launched on Sun, 07 Jan 2024 UTC via an FALCON 9 launch vehicle from the Air Force Eastern Test Range (AFETR). Payload-class satellites include a variety of spacecraft equipped with specific instruments for various scientific and technological missions. These include communications satellites like Starlink; space stations such as the ISS; scientific satellites like the Hubble; Earth observation satellites from companies like Planet Labs, Umbra, and HawkEye 360; GPS; miniature CubeSats for education and research; and military/defense satellites.

Loading next visibility...
Identifier
58747, 2024-005V
Orbit
LEO
Country
Flag of USUS
Related business
Manufacturer
SpaceX/Seattle
Mission
Operational Commercial Communications
Bus & Motor
STARLINK V2M, Unknown motor
Mass
730 kg wet, ~700 kg dry
Launch date (UTC)
2024-01-07 (2 years ago)
Launch vehicle
FALCON 9
Launch site
Air Force Eastern Test Range (AFETR)
Object type
Payload
Rocket body
Debris
Shape & HBR
Box + 2 Pan, 17.7 m
Radar Cross Section
33.884 m², Large (>1 m²)

Expand to show TLE details & history
Last TLE update: 3 days ago

TLE from 3 days ago
0 STARLINK-31183
1 58747U 24005V   26170.24787662 -.00001734  00000-0 -53516-4 0  9991
2 58747  43.0033   6.3903 0001493 270.0635  90.0045 15.27578194136071
Epoch: 2026-06-19T05:56Z
TLE epoch observation values (Epoch: 2026-06-19T05:56:56.539Z)
Latitude
-0.00008°
Longitude
9.67505°
Altitude
482.831 km
Speed
7.626 km/s
True Right ascension
00h 25m 33s
True Declination
0° 00' 00"
Sunlit
Object was in daylight at epoch
Visualization orbit readout
Latitude
Unknown
Longitude
Unknown
Altitude
Unknown
Speed
Unknown
Apparent Right ascension
Unknown
Apparent Declination
Unknown
Sunlit
N/A
Visualization observer readout
Local Sidereal Time
21:25:14
Azimuth
Unknown
Elevation
Unknown
Doppler factor
Unknown
Orbital elements
Apogee altitude
486.024 km
Perigee altitude
483.974 km
Semi-major axis
6,863.136 km
Eccentricity
0.00015
Inclination
43.0033°
RAAN
6.3903°
Arg. of periapsis
270.0635°
True anomaly
90.02161°
Mean anomaly
90.0045°
Eccentric anomaly
90.01305°
Mean motion
3.81733 °/min
Orbital period
94.31 mins
BSTAR
-0.000053516
Loading maneuver chart data...
Computing Atmospheric mass density...
Loading historical data...
Loading historical data...
Loading historical data...
Loading historical data...
Loading historical data...
Loading historical data...
Loading historical data...

Documentation

Showing up to 5 results
|